Regional Weather Roundup
Issued by NWS

Home | Current Version | Previous Version | Text Only | Print | Product List | Glossary On
Versions: 1 2 3 4 5 6 7 8 9 10 11 12 13 14 15 16 17 18 19 20 21 22 23 24 25 26 27 28 29 30 31 32 33 34 35 36 37 38 39 40 41 42 43 44 45 46 47 48 49 50
000
ASUS44 KJAN 030510
RWRMS

MISSISSIPPI HOURLY WEATHER ROUNDUP
NATIONAL WEATHER SERVICE JACKSON MS
1200 AM CDT WED JUN 03 2015

NOTE: "FAIR: INDICATES FEW OR NO CLOUDS BELOW 12,000 FEET WITH NO
SIGNIFICANT WEATHER AND/OR OBSTRUCTIONS TO VISIBILITY.

MSZ001>002-007>008-010>013-018>021-025>028-034>036-030600-
NORTHWEST MISSISSIPPI

CITY           SKY/WX    TMP DP  RH WIND       PRES   REMARKS
GREENWOOD      CLEAR     64  59  83 NE5       30.00F
GREENVILLE     CLEAR     67  63  87 MISG      30.00R
$$

MSZ003>006-009-014>017-022>024-029>033-037>039-030600-
NORTHEAST MISSISSIPPI

CITY           SKY/WX    TMP DP  RH WIND       PRES   REMARKS
COLUMBUS AFB   CLEAR     65  62  91 N6        30.00S
CORINTH        FAIR      64  61  88 CALM      30.01F
GOLDN TRIANGLE CLEAR     64  61  88 N5        30.00S
TUPELO         CLEAR     63  59  87 NE6       30.01S
$$

MSZ040-058-030600-
CENTRAL MISSISSIPPI

CITY           SKY/WX    TMP DP  RH WIND       PRES   REMARKS
JACKSON INTL   PTCLDY    69  62  78 NE6       29.99S
JACKSON HAWKNS CLEAR     70  60  70 NE5       30.00R
MERIDIAN KEY   CLEAR     65  63  93 NW5       30.00R
MERIDIAN NAS   CLEAR     67  62  84 N3        30.00R
VICKSBURG      CLEAR     67  64  90 CALM      29.98S
$$

MSZ059>079-030600-
SOUTH MISSISSIPPI

CITY           SKY/WX    TMP DP  RH WIND       PRES   REMARKS
HATTIESBURG    CLEAR     70  67  90 CALM      29.97S
MCCOMB         CLEAR     71  64  78 N6        29.98S
NATCHEZ        CLEAR     66  63  88 E3        29.99S
PINE BELT      CLEAR     70  63  78 N8        29.98S
$$

MSZ080>082-030600-
COASTAL MISSISSIPPI

CITY           SKY/WX    TMP DP  RH WIND       PRES   REMARKS
BILOXI         MOCLDY    76  72  88 NW2       29.94S
PASCAGOULA     CLOUDY    73  72  96 NE3       29.95R
GULFPORT       CLOUDY    76  71  85 W3        29.94S
$$



USA.gov is the U.S. government's official web portal to all federal, state and local government web resources and services.